Weather Roundup
Issued by NWS Springfield, MO

Home | Current Version | Previous Version | Text Only | Print | Product List | Glossary On
Versions: 1 2 3 4 5 6 7 8 9 10 11 12 13 14 15 16 17 18 19 20 21 22 23 24 25 26 27 28 29 30 31 32 33 34 35 36 37 38 39 40 41 42 43 44 45 46 47 48 49 50
435
NZUS99 KSGF 230407
HRRSGF

HOURLY WEATHER
NATIONAL WEATHER SERVICE SPRINGFIELD MO
1100 PM CDT FRI SEP 22 2017

......SGF CWA......

CITY           SKY/WX    TMP DP  RH WIND       PRES   REMARKS
SPRINGFIELD    CLEAR     74  67  78 SE6       30.01R
JOPLIN         CLEAR     73  69  87 SE7       29.98R
WEST PLAINS    CLEAR     70  65  84 CALM      30.05R
ROLLA          CLEAR     75  65  70 SE9       30.03R
OSAGE BEACH    CLEAR     74  68  81 SE3       30.01R
BRANSON        CLEAR     75  64  69 S5        30.03R

......SURROUNDING SGF CWA......

CITY           SKY/WX    TMP DP  RH WIND       PRES   REMARKS
CHANUTE        CLEAR     74  68  81 SE6       29.96R
PARSONS        CLEAR     72  67  84 CALM      29.97R
COFFEYVILLE    CLEAR     71  67  87 CALM      29.95R
EMPORIA        CLEAR     75  66  73 S9        29.94R
GROVE OK       CLEAR     72  68  88 CALM      29.98S
ROGERS AR      CLEAR     74  69  85 SE6       30.02R
SILOAM SPRINGS CLEAR     74  67  78 E6        30.00S
HARRISON AR    CLEAR     73  66  78 S3        30.03S
NEAR YELLVILLE CLEAR     74  68  81 CALM      30.01R

......KANSAS AND MISSOURI......

CITY           SKY/WX    TMP DP  RH WIND       PRES   REMARKS
KANSAS CTY INT CLEAR     73  68  84 S7        29.96R
DOWNTOWN KC    CLEAR     81  70  69 SE6       29.95R
COLUMBIA       CLEAR     77  68  73 SE6       30.00S
SEDALIA        CLEAR     75  72  90 CALM      30.00R
ST JOSEPH      CLEAR     77  69  76 S8        29.94R
ST LOUIS       CLEAR     79  64  60 CALM      30.01S
SPIRIT OF STL  CLEAR     70  67  90 CALM      30.00R
KIRKSVILLE     CLEAR     72  64  76 SE3       30.00S
WICHITA        CLEAR     77  69  76 SE14G22   29.91F
TOPEKA         CLEAR     76  70  82 SE7       29.94R
OLATHE         CLEAR     73  69  87 S7        29.97R

......TENNESSEE......

CITY           SKY/WX    TMP DP  RH WIND       PRES   REMARKS
MEMPHIS        CLEAR     81  69  67 E6        29.99S
NASHVILLE      PTCLDY    76  68  76 CALM      30.03S

......ARKANSAS.......

CITY           SKY/WX    TMP DP  RH WIND       PRES   REMARKS
FAYETTEVILLE   CLEAR     68  68 100 CALM      30.01R
FT SMITH       CLEAR     78  70  76 CALM      29.95R
LITTLE ROCK    CLEAR     76  72  87 CALM      29.98R

......OKLAHOMA.......

CITY           SKY/WX    TMP DP  RH WIND       PRES   REMARKS
TULSA          CLEAR     78  68  71 S7        29.93R
PONCA CITY     CLEAR     79  67  66 SE13      29.92S
MCALESTER      PTCLDY    75  65  70 SE5       29.96R
OKLAHOMA CITY  PTCLDY    77  64  64 SE13      29.93S

......IOWA............

CITY           SKY/WX    TMP DP  RH WIND       PRES   REMARKS
DES MOINES     PTCLDY    77  67  71 SE8       29.94R
QUAD CITIES    CLEAR     73  65  75 SE5       29.99S

......ILLINOIS........

CITY           SKY/WX    TMP DP  RH WIND       PRES   REMARKS
QUINCY         CLEAR     74  62  66 SE7       30.00S
CHICAGO        CLEAR     78  66  66 SE9       30.03S




USA.gov is the U.S. government's official web portal to all federal, state and local government web resources and services.